GW5415 Weather Reports


Display with metric or nautical units.
time (UTC)temp
F
wind
direction
speed
MPH
gust
MPH
rain 1hr
in
rain 24hr
in
rain mn
in
humidity
%
barometer
mb
20260906103507 71 77 0.0 0.0 0.00 0.00 0.00 97 1012.5
20260906103002 71 77 0.0 0.0 0.00 0.00 0.00 97 1012.4
20260906102457 72 77 0.0 0.0 0.00 0.00 0.00 97 1012.4
20260906101956 72 77 0.0 1.0 0.00 0.00 0.00 97 1012.3
20260906101452 72 77 0.0 0.0 0.00 0.00 0.00 97 1012.2
20260906100947 72 77 0.0 0.0 0.00 0.00 0.00 96 1012.3
20260906100442 72 77 0.0 0.0 0.00 0.00 0.00 96 1012.4
20260906095942 73 77 0.0 1.0 0.00 0.00 0.00 96 1012.2
20260906095437 73 77 1.0 1.0 0.00 0.00 0.00 96 1012.0
20260906094932 73 77 0.0 0.0 0.00 0.00 0.00 96 1012.1
20260906094426 73 77 0.0 0.0 0.00 0.00 0.00 96 1012.0
20260906093922 73 77 0.0 0.0 0.00 0.00 0.00 95 1012.1
20260906093419 73 77 0.0 1.0 0.00 0.00 0.00 95 1011.9
20260906092918 73 77 0.0 0.0 0.00 0.00 0.00 95 1011.9
20260906092412 73 77 0.0 0.0 0.00 0.00 0.00 95 1011.9
20260906091908 73 77 0.0 0.0 0.00 0.00 0.00 96 1011.8
20260906091403 73 84 0.0 1.0 0.00 0.00 0.00 95 1012.1
20260906090900 73 77 0.0 1.0 0.00 0.00 0.00 96 1012.2
20260906090359 73 77 0.0 0.0 0.00 0.00 0.00 96 1012.4
20260906085854 73 77 0.0 0.0 0.00 0.00 0.00 96 1012.4
20260906085353 73 77 0.0 0.0 0.00 0.00 0.00 96 1012.1
20260906084848 73 76 0.0 0.0 0.00 0.00 0.00 96 1012.4
20260906084348 73 77 1.0 1.0 0.00 0.00 0.00 96 1012.3
20260906083843 74 76 0.0 0.0 0.00 0.00 0.00 96 1012.6
20260906083338 74 57 1.0 1.0 0.00 0.00 0.00 96 1012.6
20260906082838 74 89 0.0 0.0 0.00 0.00 0.00 96 1012.6
20260906082333 74 89 0.0 0.0 0.00 0.00 0.00 95 1012.7
20260906081829 74 89 0.0 0.0 0.00 0.00 0.00 95 1012.9
20260906081325 74 89 0.0 0.0 0.00 0.00 0.00 95 1012.8
20260906080821 74 89 0.0 0.0 0.00 0.00 0.00 95 1012.8
20260906080317 74 89 0.0 0.0 0.00 0.00 0.00 95 1012.7
20260906075816 74 89 0.0 0.0 0.00 0.00 0.00 95 1013.0
20260906075315 73 89 0.0 0.0 0.00 0.00 0.00 96 1012.6
20260906074811 73 89 1.0 1.0 0.00 0.00 0.00 97 1012.8
20260906074310 73 49 0.0 0.0 0.00 0.00 0.00 98 1013.0
20260906073809 73 50 1.0 1.0 0.00 0.00 0.00 98 1013.0
20260906073304 73 57 0.0 1.0 0.00 0.00 0.00 98 1012.9
20260906072801 73 57 1.0 1.0 0.00 0.00 0.00 98 1012.7
20260906072256 73 51 0.0 1.0 0.00 0.00 0.00 98 1012.5
20260906071752 73 52 0.0 0.0 0.00 0.00 0.00 98 1012.2
20260906071252 73 67 0.0 1.0 0.00 0.00 0.00 98 1012.3
20260906070749 73 67 0.0 0.0 0.00 0.00 0.00 98 1012.0
20260906070244 73 67 0.0 0.0 0.00 0.00 0.00 98 1011.8
20260906065743 73 67 0.0 0.0 0.00 0.00 0.00 98 1011.8
20260906065239 72 67 0.0 0.0 0.00 0.00 0.00 98 1012.0
20260906064735 72 57 0.0 0.0 0.00 0.00 0.00 98 1012.0
20260906064230 72 77 0.0 0.0 0.00 0.00 0.00 98 1012.1
20260906063725 72 77 0.0 0.0 0.00 0.00 0.00 98 1012.2
20260906063221 72 78 0.0 0.0 0.00 0.00 0.00 98 1012.5
20260906062716 72 78 0.0 0.0 0.00 0.00 0.00 98 1012.4
20260906062215 72 78 0.0 0.0 0.00 0.00 0.00 98 1012.5
20260906061711 73 78 0.0 0.0 0.00 0.00 0.00 98 1012.4
20260906061207 73 78 0.0 0.0 0.00 0.00 0.00 98 1012.4
20260906060702 73 78 0.0 1.0 0.00 0.00 0.00 98 1012.2
20260906060159 73 78 1.0 1.0 0.00 0.00 0.00 98 1012.2
20260906055655 73 77 0.0 1.0 0.00 0.00 0.00 98 1012.2
20260906055150 73 77 0.0 1.0 0.00 0.00 0.00 98 1012.2
20260906054645 72 77 0.0 0.0 0.00 0.00 0.00 98 1012.3
20260906054140 72 77 0.0 0.0 0.00 0.00 0.00 98 1012.3
20260906053637 73 77 0.0 0.0 0.00 0.00 0.00 98 1012.4
20260906053132 73 77 0.0 0.0 0.00 0.00 0.00 98 1012.4
20260906052627 72 77 0.0 0.0 0.00 0.00 0.00 98 1012.6
20260906052124 73 77 0.0 0.0 0.00 0.00 0.00 98 1012.7
20260906051620 72 77 0.0 0.0 0.00 0.00 0.00 98 1012.8
20260906051115 72 77 0.0 0.0 0.00 0.00 0.00 98 1012.9
20260906050610 72 77 0.0 0.0 0.00 0.00 0.00 98 1013.0
20260906050105 73 77 0.0 0.0 0.00 0.00 0.00 98 1013.2
20260906045603 73 77 0.0 0.0 0.00 0.00 0.00 98 1013.1
20260906045059 73 77 0.0 0.0 0.00 0.00 0.00 98 1013.2
20260906044554 73 77 0.0 0.0 0.00 0.00 0.00 98 1013.2
20260906044054 73 77 0.0 0.0 0.00 0.00 0.00 98 1013.1
20260906043551 73 77 0.0 0.0 0.00 0.00 0.00 98 1013.1
20260906043047 73 77 0.0 0.0 0.00 0.00 0.00 97 1012.9
20260906042545 73 77 0.0 0.0 0.00 0.00 0.00 97 1013.1
20260906042040 73 77 0.0 0.0 0.00 0.00 0.00 97 1013.1
20260906041536 73 77 0.0 0.0 0.00 0.00 0.00 97 1013.3
20260906041031 73 77 0.0 0.0 0.00 0.00 0.00 97 1013.1
20260906040526 73 77 0.0 0.0 0.00 0.00 0.00 97 1013.2
20260906040022 73 77 0.0 0.0 0.00 0.02 0.02 97 1013.2
20260906035516 73 77 0.0 0.0 0.00 0.02 0.02 97 1013.1
20260906035012 73 79 1.0 1.0 0.00 0.02 0.02 97 1013.2
20260906034512 73 77 0.0 0.0 0.00 0.02 0.02 97 1013.2
20260906034007 73 77 0.0 0.0 0.00 0.02 0.02 97 1013.1
20260906033502 73 77 0.0 0.0 0.00 0.02 0.02 97 1012.8
20260906032957 73 77 0.0 0.0 0.00 0.02 0.02 97 1013.0
20260906032454 73 77 0.0 0.0 0.00 0.02 0.02 97 1012.9
20260906031954 73 77 0.0 0.0 0.00 0.02 0.02 97 1013.0
20260906031450 73 77 0.0 0.0 0.00 0.02 0.02 96 1012.9
20260906030946 73 77 0.0 0.0 0.00 0.02 0.02 96 1012.9
20260906030440 74 77 0.0 0.0 0.00 0.02 0.02 96 1012.9
20260906025939 74 77 0.0 0.0 0.00 0.02 0.02 96 1012.9
20260906025433 74 77 0.0 0.0 0.00 0.02 0.02 96 1012.9
20260906024932 74 77 0.0 0.0 0.00 0.02 0.02 96 1012.8
20260906024432 74 77 0.0 0.0 0.00 0.02 0.02 96 1012.8
20260906023927 74 77 0.0 0.0 0.00 0.02 0.02 96 1012.6
20260906023424 74 77 0.0 0.0 0.00 0.02 0.02 96 1012.4
20260906022924 74 77 0.0 0.0 0.00 0.02 0.02 95 1012.7
20260906022419 74 77 0.0 0.0 0.00 0.02 0.02 95 1012.4
20260906021915 74 77 0.0 0.0 0.00 0.02 0.02 95 1012.3
20260906021415 74 77 0.0 0.0 0.00 0.02 0.02 95 1012.4
20260906020914 74 77 0.0 0.0 0.00 0.02 0.02 95 1012.4
20260906020409 74 77 0.0 0.0 0.00 0.02 0.02 95 1012.5
20260906015903 75 77 0.0 0.0 0.00 0.02 0.02 94 1012.3
20260906015403 75 77 0.0 0.0 0.00 0.02 0.02 94 1012.1
20260906014903 75 77 0.0 0.0 0.00 0.02 0.02 94 1012.2
20260906014402 75 77 0.0 0.0 0.00 0.02 0.02 93 1012.2
20260906013859 75 77 0.0 0.0 0.00 0.02 0.02 92 1012.2
20260906013354 75 77 0.0 0.0 0.00 0.02 0.02 92 1012.3
20260906012849 76 77 0.0 0.0 0.00 0.02 0.02 92 1012.1
20260906012344 76 77 0.0 0.0 0.00 0.02 0.02 91 1012.2
20260906011844 76 77 0.0 0.0 0.00 0.02 0.02 91 1012.3
20260906011339 76 78 0.0 0.0 0.00 0.02 0.02 91 1012.3
20260906010835 76 65 1.0 1.0 0.00 0.02 0.02 91 1012.1
20260906010331 76 64 0.0 0.0 0.00 0.02 0.02 91 1012.0
20260906005826 77 65 0.0 0.0 0.00 0.02 0.02 91 1011.9
20260906005325 77 65 0.0 1.0 0.00 0.02 0.02 90 1011.9
20260906004824 77 64 0.0 0.0 0.00 0.02 0.02 90 1012.0
20260906004324 77 65 0.0 0.0 0.00 0.02 0.02 89 1012.1
20260906003819 77 64 0.0 1.0 0.00 0.02 0.02 90 1012.2
20260906003315 77 64 0.0 0.0 0.00 0.02 0.02 89 1012.1
20260906002810 77 65 0.0 0.0 0.00 0.02 0.02 89 1012.4
20260906002309 77 65 0.0 0.0 0.00 0.02 0.02 88 1012.2
20260906001805 78 65 0.0 0.0 0.00 0.02 0.02 89 1012.3
20260906001300 78 64 0.0 0.0 0.00 0.02 0.02 88 1012.1
20260906000756 78 65 0.0 0.0 0.00 0.02 0.02 87 1012.0
20260906000256 79 65 0.0 0.0 0.00 0.02 0.02 85 1012.3
20260905235750 79 65 0.0 0.0 0.00 0.02 0.02 85 1012.3
20260905235250 79 65 0.0 0.0 0.00 0.02 0.02 85 1012.1
20260905234746 80 65 0.0 0.0 0.00 0.02 0.02 83 1012.2
20260905234241 80 65 0.0 0.0 0.00 0.02 0.02 83 1012.1
20260905233736 80 65 0.0 0.0 0.00 0.02 0.02 83 1012.1
20260905233235 81 65 0.0 0.0 0.00 0.02 0.02 83 1011.9
20260905232730 81 65 0.0 0.0 0.00 0.02 0.02 78 1012.0
20260905232226 81 62 0.0 0.0 0.00 0.02 0.02 78 1011.8
20260905231721 81 65 0.0 0.0 0.00 0.02 0.02 79 1011.6
20260905231217 81 64 0.0 0.0 0.00 0.02 0.02 78 1011.5
20260905230713 81 69 2.0 2.0 0.00 0.02 0.02 78 1011.7
20260905230211 82 67 1.0 1.0 0.00 0.02 0.02 81 1011.6
20260905225710 81 81 2.0 2.0 0.00 0.02 0.02 80 1011.6
20260905225206 81 79 0.0 0.0 0.00 0.02 0.02 82 1012.0
20260905224705 81 79 0.0 0.0 0.00 0.02 0.02 82 1011.9
20260905224200 81 79 1.0 1.0 0.00 0.02 0.02 83 1012.1
20260905223656 82 79 0.0 1.0 0.00 0.02 0.02 83 1012.1
20260905223153 82 74 1.0 1.0 0.00 0.02 0.02 81 1012.0
20260905222648 82 70 0.0 0.0 0.00 0.02 0.02 81 1012.1
20260905222142 82 67 0.0 0.0 0.00 0.02 0.02 84 1012.0
20260905221638 82 68 0.0 1.0 0.00 0.02 0.02 83 1012.2
20260905221135 81 53 2.0 2.0 0.00 0.02 0.02 85 1012.1
20260905220630 80 58 1.0 1.0 0.00 0.02 0.02 87 1012.3
20260905220126 80 63 0.0 0.0 0.00 0.02 0.02 87 1012.0
20260905215625 80 61 0.0 0.0 0.00 0.02 0.02 87 1012.3
20260905215121 80 66 0.0 0.0 0.00 0.02 0.02 88 1012.2
20260905214618 80 55 0.0 0.0 0.00 0.02 0.02 89 1012.2
20260905214117 79 57 0.0 0.0 0.00 0.02 0.02 90 1012.4
20260905213613 79 52 0.0 0.0 0.00 0.02 0.02 90 1012.5
20260905213108 79 57 0.0 0.0 0.00 0.02 0.02 91 1012.5
20260905212608 79 60 0.0 0.0 0.00 0.02 0.02 91 1012.6
20260905212108 79 53 0.0 0.0 0.00 0.02 0.02 91 1012.2
20260905211603 80 53 0.0 0.0 0.00 0.02 0.02 89 1012.5
20260905211059 80 59 0.0 0.0 0.00 0.02 0.02 88 1012.4
20260905210554 80 59 0.0 0.0 0.00 0.02 0.02 88 1012.4
20260905210049 79 58 0.0 0.0 0.00 0.02 0.02 85 1012.3
20260905205549 80 58 0.0 0.0 0.00 0.02 0.02 85 1012.5
20260905205048 80 51 0.0 0.0 0.00 0.02 0.02 84 1012.3
20260905204543 79 51 0.0 0.0 0.00 0.02 0.02 84 1012.6
20260905204038 80 51 0.0 0.0 0.00 0.02 0.02 87 1012.7
20260905203538 80 60 0.0 0.0 0.00 0.02 0.02 84 1012.8
20260905203033 80 62 0.0 0.0 0.00 0.02 0.02 83 1012.9
20260905202528 80 51 0.0 0.0 0.00 0.02 0.02 84 1012.8
20260905202024 81 50 0.0 0.0 0.00 0.02 0.02 81 1012.7
20260905201520 81 51 0.0 0.0 0.00 0.02 0.02 78 1013.1
20260905201019 80 51 0.0 0.0 0.00 0.02 0.02 82 1013.5
20260905200515 81 51 0.0 1.0 0.00 0.02 0.02 83 1013.2
20260905200015 82 59 0.0 0.0 0.00 0.02 0.02 75 1013.2
20260905195514 82 71 1.0 1.0 0.00 0.02 0.02 75 1013.2
20260905195010 82 73 1.0 1.0 0.00 0.02 0.02 76 1013.4
20260905194510 82 59 0.0 0.0 0.00 0.02 0.02 78 1013.3
20260905194009 81 61 2.0 2.0 0.00 0.02 0.02 78 1013.0
20260905193504 81 34 3.0 3.0 0.00 0.02 0.02 82 1013.3
20260905192959 81 56 2.0 2.0 0.00 0.02 0.02 83 1013.3
20260905192454 80 57 1.0 2.0 0.00 0.02 0.02 86 1013.7
20260905191951 80 62 2.0 3.0 0.05 0.02 0.02 87 1013.5
20260905191450 81 58 1.0 1.0 0.12 0.02 0.02 86 1013.2
20260905190949 84 70 1.0 2.0 0.07 0.01 0.01 82 1013.2
20260905190447 88 65 6.0 9.0 0.00 0.00 0.00 70 1013.4
20260905185946 90 16 7.0 9.0 0.00 0.00 0.00 63 1013.2
20260905185441 90 39 2.0 2.0 0.00 0.00 0.00 63 1013.1
20260905184939 91 51 1.0 1.0 0.00 0.00 0.00 62 1012.8
20260905184434 92 57 1.0 1.0 0.00 0.00 0.00 61 1013.2
20260905183933 92 56 0.0 0.0 0.00 0.00 0.00 64 1013.3
20260905183428 92 57 0.0 1.0 0.00 0.00 0.00 60 1013.3
20260905182923 92 45 2.0 3.0 0.00 0.00 0.00 60 1013.0
20260905182422 92 57 0.0 1.0 0.00 0.00 0.00 60 1012.6
20260905181918 93 52 0.0 1.0 0.00 0.00 0.00 57 1012.9
20260905181413 94 358 1.0 1.0 0.00 0.00 0.00 55 1013.1
20260905180912 95 35 2.0 2.0 0.00 0.00 0.00 53 1013.3
20260905180407 95 58 0.0 0.0 0.00 0.00 0.00 54 1013.1
20260905175906 94 66 1.0 2.0 0.00 0.00 0.00 53 1013.1
20260905175406 95 51 1.0 2.0 0.00 0.00 0.00 53 1013.1
20260905174907 95 43 2.0 3.0 0.00 0.00 0.00 54 1013.2
20260905174403 94 56 1.0 1.0 0.00 0.00 0.00 55 1013.3
20260905173858 95 45 2.0 2.0 0.00 0.00 0.00 57 1013.6
20260905173354 95 67 0.0 1.0 0.00 0.00 0.00 58 1013.5
20260905172849 96 358 2.0 2.0 0.00 0.00 0.00 57 1013.6
20260905172347 96 83 2.0 2.0 0.00 0.00 0.00 57 1013.3
20260905171843 95 60 0.0 1.0 0.00 0.00 0.00 56 1013.4
20260905171340 93 97 1.0 2.0 0.00 0.00 0.00 55 1013.5
20260905170836 94 75 1.0 1.0 0.00 0.00 0.00 53 1013.6
20260905170332 93 61 0.0 0.0 0.00 0.00 0.00 59 1014.0
20260905165831 93 28 2.0 2.0 0.00 0.00 0.00 58 1013.9
20260905165326 93 75 1.0 1.0 0.00 0.00 0.00 58 1013.8
20260905164826 94 25 2.0 2.0 0.00 0.00 0.00 57 1013.9
20260905164321 92 35 2.0 2.0 0.00 0.00 0.00 59 1014.1
20260905163816 94 49 1.0 1.0 0.00 0.00 0.00 58 1014.1
20260905163314 92 53 1.0 1.0 0.00 0.00 0.00 61 1014.4
20260905162809 90 58 0.0 0.0 0.00 0.00 0.00 65 1014.3
20260905162308 91 47 1.0 1.0 0.00 0.00 0.00 66 1014.4
20260905161803 91 55 0.0 1.0 0.00 0.00 0.00 64 1014.4
20260905161302 92 70 1.0 1.0 0.00 0.00 0.00 61 1014.5
20260905160800 91 60 0.0 0.0 0.00 0.00 0.00 60 1014.4
20260905160255 91 44 2.0 2.0 0.00 0.00 0.00 61 1014.5
20260905155750 94 42 1.0 2.0 0.00 0.00 0.00 58 1014.5
20260905155248 92 60 0.0 0.0 0.00 0.00 0.00 60 1014.5
20260905154743 91 63 0.0 0.0 0.00 0.00 0.00 66 1014.6
20260905154239 92 57 0.0 1.0 0.00 0.00 0.00 62 1014.6
20260905153734 91 59 1.0 1.0 0.00 0.00 0.00 65 1014.8
20260905153230 90 59 0.0 0.0 0.00 0.00 0.00 68 1014.7
20260905152725 89 53 0.0 0.0 0.00 0.00 0.00 70 1014.6
20260905152225 89 69 0.0 0.0 0.00 0.00 0.00 69 1015.0
20260905151724 90 71 1.0 1.0 0.00 0.00 0.00 67 1014.9
20260905151221 90 59 2.0 2.0 0.00 0.00 0.00 66 1014.7
20260905150721 91 59 0.0 1.0 0.00 0.00 0.00 67 1014.8
20260905150220 89 65 1.0 1.0 0.00 0.00 0.00 69 1014.9
20260905145718 89 62 1.0 1.0 0.00 0.00 0.00 69 1014.8
20260905145213 88 70 0.0 1.0 0.00 0.00 0.00 71 1014.8
20260905144711 89 84 1.0 1.0 0.00 0.00 0.00 70 1014.9
20260905144212 87 69 1.0 1.0 0.00 0.00 0.00 70 1015.1
20260905143711 88 87 1.0 2.0 0.00 0.00 0.00 70 1015.0
20260905143212 87 63 0.0 0.0 0.00 0.00 0.00 70 1015.1
20260905142705 89 45 0.0 1.0 0.00 0.00 0.00 68 1015.1
20260905142204 86 60 0.0 1.0 0.00 0.00 0.00 72 1015.1
20260905141700 85 59 0.0 0.0 0.00 0.00 0.00 75 1015.0
20260905141156 85 60 1.0 1.0 0.00 0.00 0.00 77 1015.2
20260905140651 84 58 0.0 0.0 0.00 0.00 0.00 78 1015.3
20260905140150 84 43 2.0 2.0 0.00 0.00 0.00 78 1015.2
20260905135645 85 59 0.0 0.0 0.00 0.00 0.00 77 1015.2
20260905135141 83 55 0.0 0.0 0.00 0.00 0.00 79 1015.0
20260905134635 82 55 0.0 1.0 0.00 0.00 0.00 81 1015.2
20260905134134 81 83 2.0 2.0 0.00 0.00 0.00 83 1015.4
20260905133625 81 59 0.0 0.0 0.00 0.00 0.00 82 1015.4
20260905133124 81 90 0.0 1.0 0.00 0.00 0.00 82 1015.4
20260905132624 80 56 0.0 0.0 0.00 0.00 0.00 84 1015.4
20260905132119 80 56 0.0 0.0 0.00 0.00 0.00 85 1015.5
20260905131614 79 56 0.0 0.0 0.00 0.00 0.00 87 1015.4
20260905131109 79 45 0.0 0.0 0.00 0.00 0.00 86 1015.7
20260905130609 80 66 0.0 0.0 0.00 0.00 0.00 84 1015.6
20260905130104 81 63 0.0 0.0 0.00 0.00 0.00 81 1015.5
20260905125603 80 73 0.0 0.0 0.00 0.00 0.00 82 1015.4
20260905125059 79 63 0.0 0.0 0.00 0.00 0.00 85 1015.3
20260905124555 78 66 0.0 0.0 0.00 0.00 0.00 88 1015.4
20260905124051 78 95 2.0 2.0 0.00 0.00 0.00 88 1015.5
20260905123546 79 58 1.0 1.0 0.00 0.00 0.00 86 1015.1
20260905123043 77 58 0.0 0.0 0.00 0.00 0.00 88 1015.4
20260905122542 77 58 0.0 0.0 0.00 0.00 0.00 89 1015.3
20260905122037 76 58 0.0 0.0 0.00 0.00 0.00 92 1015.3
20260905121532 75 58 0.0 0.0 0.00 0.00 0.00 95 1015.4
20260905121027 74 58 0.0 0.0 0.00 0.00 0.00 96 1015.2
20260905120526 74 59 0.0 0.0 0.00 0.00 0.00 96 1015.2
20260905120022 74 58 0.0 0.0 0.00 0.00 0.00 97 1015.1
20260905115520 74 58 0.0 0.0 0.00 0.00 0.00 98 1015.1
20260905115015 73 58 0.0 0.0 0.00 0.00 0.00 98 1014.9
20260905114515 73 58 0.0 0.0 0.00 0.00 0.00 98 1015.0
20260905114014 72 58 0.0 0.0 0.00 0.00 0.00 98 1014.9
20260905113509 72 58 0.0 0.0 0.00 0.00 0.00 98 1014.8
20260905113004 72 57 0.0 0.0 0.00 0.00 0.00 98 1014.8
20260905112459 72 58 0.0 0.0 0.00 0.00 0.00 98 1014.8
20260905111954 72 58 0.0 0.0 0.00 0.00 0.00 98 1014.5
20260905111449 72 58 0.0 0.0 0.00 0.00 0.00 98 1014.4
20260905110949 72 58 0.0 0.0 0.00 0.00 0.00 98 1014.4
20260905110448 72 58 0.0 0.0 0.00 0.00 0.00 98 1014.1
20260905105948 72 58 0.0 0.0 0.00 0.00 0.00 98 1014.1
20260905105443 72 58 0.0 0.0 0.00 0.00 0.00 98 1014.0
20260905104942 72 58 0.0 0.0 0.00 0.00 0.00 98 1014.0
20260905104439 73 58 0.0 0.0 0.00 0.00 0.00 98 1013.9
20260905103939 73 58 0.0 0.0 0.00 0.00 0.00 98 1014.0